Showing default

CENTAURI-8, 62714

Orbit data source: Space-Track

CENTAURI-8, 62714 is a payload satellite owned by Fleet Space (AU) in SSO that was launched on Tue, 14 Jan 2025 UTC via an FALCON 9 launch vehicle from the Air Force Western Test Range (AFWTR). Payload-class satellites include a variety of spacecraft equipped with specific instruments for various scientific and technological missions. These include communications satellites like Starlink; space stations such as the ISS; scientific satellites like the Hubble; Earth observation satellites from companies like Planet Labs, Umbra, and HawkEye 360; GPS; miniature CubeSats for education and research; and military/defense satellites.

Loading next visibility...
Identifier
62714, 2025-009DK
Orbit
SSO
Country
Flag of AUAU / AUS
Related business
Manufacturer
Terran Orbital
Mission
Operational Commercial Communications
Bus & Motor
CUBESAT 12U, Unknown motor
Mass
~25 kg wet, ~25 kg dry
Launch date (UTC)
2025-01-14 (1 year ago)
Launch vehicle
FALCON 9
Launch site
Air Force Western Test Range (AFWTR)
Object type
Payload
Rocket body
Debris
Shape & HBR
Box + 2 Pan, 0.5 m
Radar Cross Section
0.222 m², Medium (>0.1 m² and < 1m²)

Expand to show TLE details & history
Last TLE update: 6 hours ago

TLE from 6 hours ago
0 CENTAURI-8
1 62714U 25009DK  26132.14355495  .00001672  00000-0  14836-3 0  9997
2 62714  97.7042 212.7390 0000574 244.1565 115.9598 14.97522535 72086
Epoch: 2026-05-12T03:26Z
TLE epoch observation values (Epoch: 2026-05-12T03:26:43.147Z)
Latitude
-0.00003°
Longitude
-68.86293°
Altitude
577.78 km
Speed
7.572 km/s
True Right ascension
14h 10m 57s
True Declination
0° 00' 00"
Sunlit
Object was in full shadow at epoch
Visualization orbit readout
Latitude
Unknown
Longitude
Unknown
Altitude
Unknown
Speed
Unknown
Apparent Right ascension
Unknown
Apparent Declination
Unknown
Sunlit
N/A
Visualization observer readout
Local Sidereal Time
17:36:47
Azimuth
Unknown
Elevation
Unknown
Doppler factor
Unknown
Orbital elements
Apogee altitude
571.962 km
Perigee altitude
571.164 km
Semi-major axis
6,949.7 km
Eccentricity
0.00006
Inclination
97.7042°
RAAN
212.739°
Arg. of periapsis
244.1565°
True anomaly
115.96571°
Mean anomaly
115.9598°
Eccentric anomaly
115.96276°
Mean motion
3.74623 °/min
Orbital period
96.1 mins
BSTAR
0.00014836
Loading maneuver chart data...
Computing Atmospheric mass density...
Loading historical data...
Loading historical data...
Loading historical data...
Loading historical data...
Loading historical data...
Loading historical data...
Loading historical data...

Documentation

Showing up to 5 results
|